User: anonymous   Login
Location: Saddleback Butte
(34.6776°N, 117.8050°W)
Time: 12:33:54
(UTC-08:00)
Language:

Cosmos 1862 Rocket - Orbit

View from above orbital plane
View from above orbital plane
View from above satellite
View from above satellite

Ground track
Ground track

The orbit data is extracted from the following two-line orbital elements,

1 18153U 87055B   16036.91423323 +.00000229 +00000-0 +25126-4 0  9999
2 18153 082.4987 211.3048 0020198 282.4165 077.4790 14.83073130523571
Epoch (UTC): 05 February 2016 21:56:29
Eccentricity: 0.0020198
inclination: 82.4987°
perigee height: 605 km
apogee height: 634 km
right ascension of ascending node: 211.3048°
argument of perigee: 282.4165°
revolutions per day: 14.83073130
mean anomaly at epoch: 77.4790°
orbit number at epoch: 52357

The dashed part of the orbit path shows where the satellite is in the earth's shadow,  

DLR